Change the Weather History Date:

Tuesday, June 4, 2013

  Actual Average Record
Temperature  
Mean Temperature 62 °F -  
Max Temperature 75 °F 73 °F 81 °F (2002)
Min Temperature 50 °F 51 °F 44 °F (1976)
Degree Days  
Heating Degree Days 4    
Growing Degree Days 12 (Base 50)    
Moisture  
Dew Point 45 °F    
Average Humidity 58    
Maximum Humidity 83    
Minimum Humidity 32    
Precipitation  
Precipitation 0.00 in - - ()
Sea Level Pressure  
Sea Level Pressure 30.08 in    
Wind  
Wind Speed 3 mph (NW)    
Max Wind Speed 10 mph    
Max Gust Speed 17 mph    
Visibility 10 miles    
Events      
Averages and records for this station are not official NWS values.
T = Trace of Precipitation, MM = Missing Value Source: NWS Daily Summary

Daily Weather History Graph

Daily Weather History Graph

Search for Another Location

Airport or City:

Trip Planner

Search our weather history database for the weather conditions in past years. The results will help you decide how hot, cold, wet, or windy it might be!

Date:

Astronomy

Jun. 04, 2013 Rise Set
Actual Time 5:39 AM EDT 8:32 PM EDT
Civil Twilight 5:07 AM EDT 9:04 PM EDT
Nautical Twilight 4:26 AM EDT 9:45 PM EDT
Astronomical Twilight 3:40 AM EDT 10:32 PM EDT
Moon 3:08 AM EDT (6/4) 4:59 PM EDT (6/4)
Length of Visible Light 15h 57m
Length of Day
14h 52m
Waning Crescent, 14% of the Moon is Illuminated
Jun 4
Waning Crescent
Jun 8
New
Jun 16
First Quarter
Jun 23
Full
Jun 30
Last Quarter

Hourly Weather History & Observations

Time (EDT) Temp. Dew Point Humidity Pressure Visibility Wind Dir Wind Speed Gust Speed Precip Events Conditions
12:53 AM 57.9 °F 52.0 °F 81% 29.98 in 10.0 mi WNW 3.5 mph - N/A   Clear
1:53 AM 57.0 °F 48.9 °F 74% 29.99 in 10.0 mi WNW 5.8 mph - N/A   Clear
2:53 AM 55.0 °F 45.0 °F 69% 30.00 in 10.0 mi Calm Calm - N/A   Clear
3:53 AM 53.1 °F 44.1 °F 71% 30.01 in 10.0 mi West 4.6 mph - N/A   Clear
4:53 AM 51.1 °F 42.1 °F 71% 30.03 in 10.0 mi Calm Calm - N/A   Clear
5:53 AM 50.0 °F 42.1 °F 74% 30.06 in 10.0 mi Calm Calm - N/A   Clear
6:53 AM 54.0 °F 46.0 °F 75% 30.07 in 10.0 mi Calm Calm - N/A   Clear
7:53 AM 57.9 °F 41.0 °F 53% 30.09 in 10.0 mi NNW 8.1 mph - N/A   Clear
8:53 AM 61.0 °F 39.9 °F 46% 30.11 in 10.0 mi North 10.4 mph - N/A   Clear
9:53 AM 63.0 °F 42.1 °F 46% 30.12 in 10.0 mi NW 8.1 mph - N/A   Clear
10:53 AM 64.0 °F 42.1 °F 45% 30.12 in 10.0 mi Variable 6.9 mph 17.3 mph N/A   Clear
11:53 AM - - N/A% 30.12 in - North 4.6 mph - N/A   Clear
12:53 PM - - N/A% 30.11 in - NW 3.5 mph - N/A   Clear
1:53 PM - - N/A% 30.09 in - Calm Calm - N/A   Clear
2:53 PM 73.0 °F 44.1 °F 35% 30.09 in 10.0 mi North - - N/A   Unknown
3:53 PM 73.9 °F 44.1 °F 34% 30.09 in 10.0 mi NNE 6.9 mph - N/A   Clear
4:53 PM 73.0 °F 43.0 °F 34% 30.08 in 10.0 mi West 3.5 mph - N/A   Clear
5:53 PM 73.9 °F 42.1 °F 32% 30.08 in 10.0 mi NW 4.6 mph - N/A   Clear
6:53 PM 73.0 °F 43.0 °F 34% 30.08 in 10.0 mi NW 4.6 mph - N/A   Clear
7:53 PM 70.0 °F 46.0 °F 42% 30.09 in 10.0 mi Calm Calm - N/A   Clear
8:53 PM 61.0 °F 51.1 °F 70% 30.11 in 10.0 mi Calm Calm - N/A   Clear
9:53 PM 60.1 °F 48.9 °F 67% 30.13 in 10.0 mi Calm Calm - N/A   Clear
10:53 PM 55.9 °F 48.9 °F 77% 30.14 in 10.0 mi Calm Calm - N/A   Clear
11:53 PM 55.0 °F 50.0 °F 83% 30.13 in 10.0 mi Calm Calm - N/A   Clear